Regional Weather Roundup
Issued by NWS

Home | Current Version | Previous Version | Graphics & Text | Print | Product List | Glossary On
Versions: 1 2 3 4 5 6 7 8 9 10 11 12 13 14 15 16 17 18 19 20 21 22 23 24 25 26 27 28 29 30 31 32 33 34 35 36 37 38 39 40 41 42 43 44 45 46 47 48 49 50
000
ASUS43 KIND 060259
RWRIN

WEATHER ROUNDUP FOR INDIANA
NATIONAL WEATHER SERVICE INDIANAPOLIS IN
1100 PM EDT SUN JUL 05 2015

NOTE: "FAIR" INDICATES FEW OR NO CLOUDS BELOW 12,000 FEET WITH NO
SIGNIFICANT WEATHER AND/OR OBSTRUCTIONS TO VISIBILITY.

* - STATION DOES NOT REPORT WEATHER SUCH AS PRECIPITATION OR FOG.

+ - STATION NOT QUALITY CONTROLLED BY THE NATIONAL WEATHER SERVICE.
    USE DATA WITH CAUTION...ESPECIALLY DEWPOINT AND RELATIVE
    HUMIDITY OBSERVATIONS.

INZ001>003-010>013-019-020-060400-
NORTHWEST INDIANA

CITY           SKY/WX    TMP DP  RH WIND       PRES   REMARKS
GARY /AIRPORT/ PTCLDY   N/A N/A N/A SE5       30.04R
RENSSELAER +   CLEAR     70  66  88 SE3       30.06R

$$

LMZ046-743>745-060400-
SOUTHERN LAKE MICHIGAN

STATION/POSITION TIME  TEMP    WIND        PRES    WAVE
                       AIR SEA DIR/SP/G            HT
                 (UTC) (F)     (DEG/KT/KT) (MB)    (FT)
BURNS HARBOR     0200   77     180/  4/  7 1017.6R
MICHIGAN CITY    0200   76     130/  4/  6   N/A
5NW MICH CITY    0200   68 67  130/  4/  4   N/A     0

$$

INZ004-005-014>016-021>024-060400-
NORTH CENTRAL INDIANA

CITY           SKY/WX    TMP DP  RH WIND       PRES   REMARKS
GOSHEN         PTCLDY    69  63  81 SE6       30.07R
SOUTH BEND     CLEAR     71  60  68 CALM      30.06S

$$

INZ006>009-017-018-025>027-060400-
NORTHEAST INDIANA

CITY           SKY/WX    TMP DP  RH WIND       PRES   REMARKS
ANGOLA *+        N/A     68  61  77 CALM      30.09R
FORT WAYNE     PTCLDY    68  64  87 CALM      30.09R

$$

INZ028-029-035-036-043>045-051>053-060400-
WEST CENTRAL INDIANA

CITY           SKY/WX    TMP DP  RH WIND       PRES   REMARKS
CRAWFORDSVL +  CLEAR     67  65  91 SE5       30.07S
GREENCASTLE +  CLEAR     70  63  78 CALM      30.09R
LAFAYETTE      CLEAR     67  64  90 CALM      30.05R
TERRE HAUTE    CLEAR     73  68  84 SE5       30.06R

$$

INZ030>032-037>040-046>048-054>057-064-065-060400-
CENTRAL INDIANA

CITY           SKY/WX    TMP DP  RH WIND       PRES   REMARKS
GREENWOOD *+   PTCLDY    66  63  88 CALM      30.09R
INDIANAPOLIS   PTCLDY    72  61  68 SE5       30.06S
-EAGLE CREEK   PTCLDY    70  61  73 MISG      30.07R
KOKOMO *+      PTCLDY    70  64  83 CALM      30.08R
MT COMFORT *+  PTCLDY    64 N/A N/A CALM      30.09S
SHELBYVILLE    PTCLDY    68  63  84 CALM      30.08R

$$

INZ033-034-041-042-049-050-058-059-060400-
EAST CENTRAL INDIANA

CITY           SKY/WX    TMP DP  RH WIND       PRES   REMARKS
MUNCIE         CLEAR     68  61  78 CALM      30.09R

$$

INZ060-061-067>069-081>083-085>088-060400-
SOUTHWEST INDIANA

CITY           SKY/WX    TMP DP  RH WIND       PRES   REMARKS
EVANSVILLE     CLEAR     76  69  79 CALM      30.07R HAZE
HUNTINGBURG *+ CLEAR     72  66  83 CALM      30.09R

$$

INZ062-063-066-070>080-084-089>092-060400-
SOUTH CENTRAL AND SOUTHEAST INDIANA

CITY           SKY/WX    TMP DP  RH WIND       PRES   REMARKS
BLOOMINGTON    PTCLDY    68  66  93 CALM      30.09R FOG
MADISON *+     CLEAR     66  63  88 CALM      30.12R
SEYMOUR +      PTCLDY    66  64  94 CALM      30.08R

$$




USA.gov is the U.S. government's official web portal to all federal, state and local government web resources and services.